Weather History for Kejimkujik, NS

Change the Weather History Date:

Sunday, December 16, 2012

  Actual Average Record
Temperature  
Mean Temperature 18 °F -  
Max Temperature 26 °F - - ()
Min Temperature 9 °F - - ()
Degree Days  
Heating Degree Days 48    
Moisture  
Dew Point 11 °F    
Average Humidity 77    
Maximum Humidity 92    
Minimum Humidity 37    
Precipitation  
Precipitation 0.16 in - - ()
Sea Level Pressure  
Sea Level Pressure 30.42 in    
Wind  
Wind Speed 3 mph ()    
Max Wind Speed 6 mph    
Max Gust Speed -    
T = Trace of Precipitation, MM = Missing Value Source: Averaged Metar Reports

Daily Weather History Graph

Daily Weather History Graph

Search for Another Location

Airport:

Trip Planner

Search our weather history database for the weather conditions in past years. The results will help you decide how hot, cold, wet, or windy it might be!

Date:

Astronomy

Dec. 16, 2012 Rise Set
Actual Time 7:51 AM AST 4:42 PM AST
Civil Twilight 7:17 AM AST 5:15 PM AST
Nautical Twilight 6:40 AM AST 5:52 PM AST
Astronomical Twilight 6:05 AM AST 6:27 PM AST
Moon 10:15 AM AST (12/16) 8:59 PM AST (12/16)
Length of Visible Light 9h 57m
Length of Day
8h 51m
Waxing Crescent, 15% of the Moon is Illuminated
Dec 16
Waxing Crescent
Dec 20
First Quarter
Dec 28
Full
Jan 4
Last Quarter
Jan 11
New

Hourly Weather History & Observations

Time (AST) Temp. Windchill Dew Point Humidity Pressure Visibility Wind Dir Wind Speed Gust Speed Precip Events Conditions
12:00 AM 15.3 °F 9.6 °F 12.0 °F 87% 30.42 in - North 3.5 mph - N/A   Unknown
1:00 AM 15.1 °F 9.4 °F 11.5 °F 86% 30.41 in - North 3.5 mph - N/A   Unknown
2:00 AM 14 °F - 11 °F 83% 30.41 in - NNE 2.3 mph - -  
2:00 AM 14.2 °F - 11.1 °F 88% 30.41 in - NNE 2.3 mph - N/A   Unknown
3:00 AM 14.0 °F - 11.3 °F 89% 30.43 in - North 2.3 mph - N/A   Unknown
4:00 AM 14.4 °F 6.9 °F 9.3 °F 80% 30.43 in - North 4.6 mph - N/A   Unknown
6:00 AM 10.8 °F 4.5 °F 8.1 °F 89% 30.43 in - North 3.5 mph - N/A   Unknown
7:00 AM 9.9 °F 3.4 °F 7.7 °F 91% 30.44 in - NNE 3.5 mph - N/A   Unknown
8:00 AM 9 °F - 8 °F 90% 30.43 in - NNE 2.3 mph - -  
8:00 AM 9.3 °F - 7.5 °F 92% 30.43 in - NNE 2.3 mph - N/A   Unknown
9:00 AM 12.4 °F 6.3 °F 7.9 °F 82% 30.44 in - NNW 3.5 mph - N/A   Unknown
10:00 AM 16.9 °F 9.8 °F 9.3 °F 72% 30.45 in - North 4.6 mph - 0.03 in   Unknown
11:00 AM 20.3 °F 13.8 °F 9.9 °F 64% 30.43 in - NNE 4.6 mph - 0.03 in   Unknown
12:00 PM 22.8 °F 16.7 °F 9.3 °F 56% 30.41 in - NNE 4.6 mph - 0.03 in   Unknown
1:00 PM 24.4 °F 17.5 °F 10.6 °F 56% 30.41 in - NNW 5.8 mph - 0.02 in   Unknown
2:00 PM 26 °F - 10 °F 37% 30.40 in - North 4.6 mph - -  
2:00 PM 25.5 °F 19.9 °F 10.4 °F 53% 30.40 in - North 4.6 mph - 0.05 in   Unknown
3:00 PM 26.1 °F 21.9 °F 9.9 °F 50% 30.39 in - North 3.5 mph - N/A   Unknown
4:00 PM 24.1 °F - 12.4 °F 61% 30.40 in - North 2.3 mph - N/A   Unknown
5:00 PM 21.2 °F - 13.3 °F 72% 30.40 in - NNW 2.3 mph - N/A   Unknown
6:00 PM 18.3 °F - 13.1 °F 80% 30.41 in - North 2.3 mph - N/A   Unknown
7:00 PM 16.2 °F - 12.6 °F 86% 30.41 in - North 1.2 mph - N/A   Unknown
8:00 PM 16 °F - 14 °F 86% 30.43 in - NNE 2.3 mph - -  
8:00 PM 15.8 °F - 13.6 °F 91% 30.43 in - NNE 2.3 mph - N/A   Unknown
9:00 PM 14.5 °F - 12.4 °F 91% 30.40 in - ENE 2.3 mph - N/A   Unknown
10:00 PM 15.8 °F - 13.5 °F 90% 30.40 in - East 2.3 mph - N/A   Unknown
11:00 PM 16.3 °F - 14.0 °F 90% 30.41 in - East 1.2 mph - N/A   Unknown